Location: Boss Branch
(32.3799°N, 97.2508°W)
Time: 04:38:32
(UTC+00:00)

Tiangong - Visible Passes

Search period start: 18 January 2026 00:00
Search period end: 28 January 2026 00:00
Orbit: 378 x 394 km, 41.5° (Epoch: 17 January)

Date Brightness Start Highest point End Pass type
(mag) Time Alt. Az. Time Alt. Az. Time Alt. Az.
18 Jan 0.6 11:20:52 19° E 11:20:52 19° E 11:22:02 10° ENE visible
18 Jan -1.1 12:53:07 10° W 12:55:55 30° NNW 12:58:48 10° NE visible
19 Jan -1.4 11:57:05 41° NNE 11:57:05 41° NNE 11:59:37 10° NE visible
20 Jan -0.5 12:33:07 17° NW 12:34:18 21° NNW 12:36:50 10° NE visible
21 Jan 0.5 11:36:44 16° NE 11:36:44 16° NE 11:37:35 10° NE visible
22 Jan -0.2 12:12:28 17° N 12:12:34 17° N 12:14:47 10° NE visible
23 Jan 0.1 12:48:24 10° NW 12:50:29 16° N 12:52:34 10° NE visible
24 Jan 0.3 11:51:27 15° NNE 11:51:27 15° NNE 11:52:45 10° NE visible
25 Jan 0.0 12:26:57 13° NNW 12:28:34 18° N 12:30:52 10° ENE visible
26 Jan 0.8 11:30:13 12° NE 11:30:13 12° NE 11:30:49 10° NE visible
27 Jan -0.4 12:05:40 21° N 12:06:26 23° NNE 12:09:04 10° ENE visible
